EW5191 Weather Reports


Display with metric or nautical units.
time (UTC)temp
F
wind
direction
speed
MPH
gust
MPH
rain 1hr
in
rain 24hr
in
rain mn
in
humidity
%
barometer
mb
20260905120019 56 133 1.0 2.0 0.00 0.00 0.00 43 1008.8
20260905114513 56 212 0.0 0.0 0.00 0.00 0.00 44 1008.9
20260905113004 55 208 0.0 1.0 0.00 0.00 0.00 45 1008.7
20260905111502 54 132 0.0 1.0 0.00 0.00 0.00 46 1008.6
20260905110001 55 206 0.0 1.0 0.00 0.00 0.00 46 1008.6
20260905104616 57 232 0.0 1.0 0.00 0.00 0.00 43 1008.4
20260905103054 57 218 0.0 1.0 0.00 0.00 0.00 43 1008.1
20260905101553 60 133 1.0 4.0 0.00 0.00 0.00 38 1008.1
20260905100050 61 257 0.0 2.0 0.00 0.00 0.00 37 1008.0
20260905094650 63 128 0.0 3.0 0.00 0.00 0.00 36 1007.6
20260905093049 61 126 0.0 6.0 0.00 0.00 0.00 38 1007.5
20260905091548 62 137 0.0 2.0 0.00 0.00 0.00 37 1007.4
20260905090043 64 110 0.0 1.0 0.00 0.00 0.00 34 1007.2
20260905084555 64 143 2.0 4.0 0.00 0.00 0.00 32 1007.1
20260905083040 65 144 1.0 2.0 0.00 0.00 0.00 32 1006.9
20260905081541 65 63 0.0 3.0 0.00 0.00 0.00 32 1006.7
20260905080038 65 214 1.0 3.0 0.00 0.00 0.00 31 1006.8
20260905074537 64 220 2.0 4.0 0.00 0.00 0.00 31 1006.6
20260905073035 62 185 2.0 4.0 0.00 0.00 0.00 32 1006.6
20260905071539 65 315 0.0 6.0 0.00 0.00 0.00 30 1006.7
20260905070032 62 262 0.0 1.0 0.00 0.00 0.00 32 1006.5
20260905064529 64 223 0.0 0.0 0.00 0.00 0.00 29 1006.2
20260905063028 64 224 2.0 3.0 0.00 0.00 0.00 29 1006.1
20260905061531 67 132 0.0 2.0 0.00 0.00 0.00 27 1005.7
20260905060046 67 144 1.0 2.0 0.00 0.00 0.00 27 1005.6
20260905054529 67 127 0.0 3.0 0.00 0.00 0.00 28 1005.6
20260905053024 66 203 3.0 11.0 0.00 0.00 0.00 30 1005.4
20260905051534 68 127 0.0 4.0 0.00 0.00 0.00 33 1005.4
20260905050027 69 134 7.0 13.0 0.00 0.00 0.00 25 1005.4
20260905044522 67 206 0.0 0.0 0.00 0.00 0.00 26 1005.1
20260905043023 70 156 0.0 3.0 0.00 0.00 0.00 23 1005.0
20260905041522 70 166 0.0 0.0 0.00 0.00 0.00 23 1004.9
20260905040023 70 305 0.0 1.0 0.00 0.00 0.00 24 1004.8
20260905034523 72 322 0.0 1.0 0.00 0.00 0.00 22 1004.7
20260905033021 73 124 0.0 2.0 0.00 0.00 0.00 22 1004.4
20260905031524 77 126 3.0 4.0 0.00 0.00 0.00 20 1004.4
20260905030021 77 233 0.0 3.0 0.00 0.00 0.00 20 1004.2
20260905024538 78 167 3.0 5.0 0.00 0.00 0.00 19 1004.1
20260905023022 80 204 2.0 4.0 0.00 0.00 0.00 18 1003.9
20260905021521 81 156 4.0 6.0 0.00 0.00 0.00 18 1003.7
20260905020020 82 136 4.0 6.0 0.00 0.00 0.00 18 1003.5
20260905014519 83 137 3.0 6.0 0.00 0.00 0.00 17 1003.3
20260905013023 86 151 5.0 8.0 0.00 0.00 0.00 16 1003.1
20260905011519 88 144 4.0 7.0 0.00 0.00 0.00 16 1003.0
20260905010019 90 126 6.0 10.0 0.00 0.00 0.00 14 1003.0
20260905004519 91 199 7.0 10.0 0.00 0.00 0.00 13 1002.9
20260905003018 91 163 6.0 11.0 0.00 0.00 0.00 13 1002.9
20260905001517 92 144 7.0 11.0 0.00 0.00 0.00 13 1002.8
20260905000016 91 200 11.0 18.0 0.00 0.00 0.00 13 1002.9
20260904234521 92 193 8.0 16.0 0.00 0.00 0.00 13 1002.9
20260904233016 92 177 10.0 15.0 0.00 0.00 0.00 13 1002.7
20260904231516 92 187 9.0 16.0 0.00 0.00 0.00 13 1002.8
20260904230016 92 196 9.0 15.0 0.00 0.00 0.00 12 1002.9
20260904224515 92 190 7.0 11.0 0.00 0.00 0.00 13 1002.8
20260904223014 92 205 5.0 11.0 0.00 0.00 0.00 13 1002.8
20260904221512 92 157 7.0 17.0 0.00 0.00 0.00 13 1002.9
20260904220011 92 168 6.0 22.0 0.00 0.00 0.00 13 1002.9
20260904214509 91 201 12.0 22.0 0.00 0.00 0.00 13 1003.1
20260904213008 92 170 9.0 17.0 0.00 0.00 0.00 13 1003.2
20260904211507 91 177 13.0 21.0 0.00 0.00 0.00 13 1003.3
20260904210006 91 246 11.0 20.0 0.00 0.00 0.00 13 1003.4
20260904204505 91 204 9.0 15.0 0.00 0.00 0.00 14 1003.4
20260904203007 89 183 9.0 23.0 0.00 0.00 0.00 14 1003.5
20260904201503 90 210 8.0 19.0 0.00 0.00 0.00 13 1003.8
20260904200003 89 196 14.0 21.0 0.00 0.00 0.00 13 1003.8
20260904194600 89 171 10.0 18.0 0.00 0.00 0.00 14 1003.9
20260904193057 89 176 12.0 18.0 0.00 0.00 0.00 14 1004.1
20260904190052 88 199 12.0 18.0 0.00 0.00 0.00 13 1004.1
20260904184553 87 189 14.0 20.0 0.00 0.00 0.00 14 1004.4
20260904183046 87 192 11.0 16.0 0.00 0.00 0.00 14 1004.6
20260904180042 86 178 11.0 17.0 0.00 0.00 0.00 15 1004.8
20260904174541 86 173 8.0 17.0 0.00 0.00 0.00 17 1004.8
20260904173037 86 175 6.0 15.0 0.00 0.00 0.00 16 1004.7
20260904170033 84 161 9.0 19.0 0.00 0.00 0.00 17 1004.7
20260904164532 83 137 10.0 18.0 0.00 0.00 0.00 22 1004.7
20260904163044 82 149 11.0 15.0 0.00 0.00 0.00 22 1004.8
20260904160022 78 121 1.0 5.0 0.00 0.00 0.00 25 1005.0
20260904154519 75 320 0.0 3.0 0.00 0.00 0.00 26 1005.2
20260904153013 72 127 0.0 1.0 0.00 0.00 0.00 27 1005.3
20260904150006 69 128 0.0 2.0 0.00 0.00 0.00 30 1005.2
20260904144501 66 135 0.0 1.0 0.00 0.00 0.00 31 1005.1
20260904143120 63 125 0.0 1.0 0.00 0.00 0.00 34 1005.2
20260904140059 57 125 0.0 1.0 0.00 0.00 0.00 38 1005.2
20260904134559 55 26 0.0 1.0 0.00 0.00 0.00 41 1005.0
20260904133108 53 137 0.0 0.0 0.00 0.00 0.00 42 1004.9
20260904130105 51 249 0.0 1.0 0.00 0.00 0.00 42 1004.6
20260904124551 53 248 0.0 1.0 0.00 0.00 0.00 40 1004.4
20260904123052 53 132 3.0 4.0 0.00 0.00 0.00 40 1004.3